Location: Vihti�l�
(61.3833°N, 23.0667°E)
Time: 05:33:17
(UTC+00:00)

Geosat - Pass Details

Date: 29 November 2020
Orbit: 762 x 766 km, 108.0° (Epoch: 22 January)

Event Time Altitude Azimuth Distance (km) Brightness Sun altitude
Rises 04:38:23 0° 150° (SSE) 3,222 7.9 -16.2°
Reaches altitude 10° 04:40:40 10° 154° (SSE) 2,299 7.1 -15.9°
Maximum altitude 04:45:39 62° 236° (SW) 860 4.1 -15.4°
Enters shadow 04:49:04 20° 312° (NW) 1,705 5.3 -15.0°
